Cambridge Bay, Nunavut

1:59 AM MDT on June 29, 2017 (GMT -0600)
Cambridge Bay

Weather History for CYCB - May, 2013

Change the Weather History Date:

Tuesday, May 7, 2013

  Actual Average Record
Temperature  
Mean Temperature -3 °F -  
Max Temperature 5 °F 26 °F 32 °F (2006)
Min Temperature -11 °F 13 °F -11 °F (2005)
Degree Days  
Heating Degree Days 68    
Moisture  
Dew Point -11 °F    
Average Humidity 68    
Maximum Humidity 77    
Minimum Humidity 54    
Precipitation  
Precipitation 0.00 in 0.01 in - ()
Sea Level Pressure  
Sea Level Pressure 30.05 in    
Wind  
Wind Speed 11 mph ()    
Max Wind Speed 18 mph    
Max Gust Speed 23 mph    
Visibility 15.0 miles    
Events      
Averages and records for this station are not official NWS values.
T = Trace of Precipitation, MM = Missing Value Source: Averaged Metar Reports

Daily Weather History Graph

Daily Weather History Graph

Search for Another Location

Airport or City:

Trip Planner

Search our weather history database for the weather conditions in past years. The results will help you decide how hot, cold, wet, or windy it might be!

Date:

Astronomy

May. 07, 2013 Rise Set
Actual Time 3:09 AM MDT 10:49 PM MDT
Civil Twilight Sun does not set Sun does not set
Nautical Twilight Sun does not set Sun does not set
Astronomical Twilight Sun does not set Sun does not set
Moon 3:19 AM MDT (5/7) 7:38 PM MDT (5/7)
Length of Visible Light 24h 00m
Length of Day
19h 40m
Waning Crescent, 5% of the Moon is Illuminated
May 7
Waning Crescent
May 9
New
May 17
First Quarter
May 24
Full
May 31
Last Quarter

Hourly Weather History & Observations

Time (MDT) Temp. Windchill Dew Point Humidity Pressure Visibility Wind Dir Wind Speed Gust Speed Precip Events Conditions
12:00 AM -9 °F - -15 °F 61% 30.01 in 15 mi NW 9.2 mph - -   Scattered Clouds
12:00 AM -9.4 °F -26.8 °F -14.8 °F 77% 30.01 in 15.0 mi NW 9.2 mph - N/A   Partly Cloudy
1:00 AM -9.4 °F -27.9 °F -16.6 °F 71% 30.00 in 15.0 mi NW 10.4 mph - N/A   Partly Cloudy
2:00 AM -5.8 °F -19.9 °F -13.0 °F 71% 30.01 in 15.0 mi West 6.9 mph - N/A   Partly Cloudy
3:00 AM -9.4 °F -25.6 °F -16.6 °F 71% 30.00 in 15.0 mi WNW 8.1 mph - N/A   Partly Cloudy
4:00 AM -11.2 °F -30.1 °F -18.4 °F 70% 30.00 in 15.0 mi WNW 10.4 mph - N/A   Partly Cloudy
5:00 AM -9.4 °F -29.8 °F -16.6 °F 71% 30.00 in 15.0 mi NW 12.7 mph - N/A   Partly Cloudy
6:00 AM -10 °F - -18 °F 54% 30.01 in 15 mi West 12.7 mph - -   Clear
6:00 AM -11.2 °F -32.1 °F -18.4 °F 70% 30.01 in 15.0 mi West 12.7 mph - N/A   Partly Cloudy
7:00 AM -9.4 °F -30.6 °F -16.6 °F 71% 30.01 in 15.0 mi WNW 13.8 mph - N/A   Partly Cloudy
8:00 AM -9.4 °F -30.6 °F -14.8 °F 77% 30.01 in 15.0 mi NW 13.8 mph - N/A   Partly Cloudy
9:00 AM -5.8 °F -22.4 °F -13.0 °F 71% 30.02 in 15.0 mi WNW 9.2 mph - N/A   Partly Cloudy
10:00 AM -5.8 °F -27.5 °F -13.0 °F 71% 30.01 in 15.0 mi NW 16.1 mph - N/A   Partly Cloudy
11:00 AM -2.2 °F -21.5 °F -9.4 °F 71% 30.02 in 15.0 mi NW 13.8 mph - N/A   Scattered Clouds
12:00 PM -1 °F - -9 °F 57% 30.03 in 15 mi NW 13.8 mph - -   Partly Cloudy
12:00 PM -0.4 °F -21.7 °F -9.4 °F 66% 30.03 in 15.0 mi NW 18.4 mph - N/A   Scattered Clouds
1:00 PM 1.4 °F -19.4 °F -5.8 °F 72% 30.04 in 15.0 mi WNW 18.4 mph - N/A   Scattered Clouds
2:00 PM 3.2 °F -17.1 °F -4.0 °F 72% 30.06 in 15.0 mi WNW 18.4 mph - N/A   Scattered Clouds
3:00 PM 5.0 °F -14.7 °F -4.0 °F 66% 30.06 in 15.0 mi WNW 18.4 mph - N/A   Scattered Clouds
4:00 PM 5.0 °F -14.7 °F -4.0 °F 66% 30.08 in 15.0 mi NW 18.4 mph - N/A   Scattered Clouds
5:00 PM 5.0 °F -14.2 °F -5.8 °F 61% 30.09 in 15.0 mi NW 17.3 mph 23.0 mph N/A   Mostly Cloudy
6:00 PM 4 °F - -4 °F 56% 30.10 in 15 mi NW 18.4 mph - -   Mostly Cloudy
6:00 PM 5.0 °F -10.8 °F -4.0 °F 66% 30.10 in 15.0 mi NW 11.5 mph 17.3 mph N/A   Mostly Cloudy
7:00 PM 5.0 °F -12.3 °F -4.0 °F 66% 30.11 in 15.0 mi NW 13.8 mph 19.6 mph N/A   Mostly Cloudy
8:00 PM 3.2 °F -13.1 °F -5.8 °F 66% 30.12 in 15.0 mi NW 11.5 mph 17.3 mph N/A   Mostly Cloudy
9:00 PM -0.4 °F -17.6 °F -7.6 °F 72% 30.12 in 15.0 mi NW 11.5 mph - N/A   Scattered Clouds
10:00 PM -2.2 °F -21.5 °F -9.4 °F 71% 30.13 in 15.0 mi NW 13.8 mph - N/A   Partly Cloudy
11:00 PM -5.8 °F -26.0 °F -13.0 °F 71% 30.13 in 15.0 mi NW 13.8 mph - N/A   Partly Cloudy